Regional Weather Roundup
Issued by NWS

Home | Current Version | Previous Version | Text Only | Print | Product List | Glossary Off
Versions: 1 2 3 4 5 6 7 8 9 10 11 12 13 14 15 16 17 18 19 20 21 22 23 24 25 26 27 28 29 30 31 32 33 34 35 36 37 38 39 40 41 42 43 44 45 46 47 48 49 50

000
ASUS43 KBIS 311610
RWRND

NORTH DAKOTA REGIONAL WEATHER ROUNDUP
NATIONAL WEATHER SERVICE BISMARCK ND
1100 AM CDT FRI JUL 31 2015

NOTE: "FAIR" INDICATES FEW OR NO CLOUDS BELOW 12,000 FEET WITH NO
SIGNIFICANT WEATHER AND/OR OBSTRUCTIONS TO VISIBILITY.


NDZ001>003-009>011-017-311700-
NORTHWEST NORTH DAKOTA

CITY           SKY/WX    TMP DP  RH WIND       PRES   REMARKS
WILLISTON      SUNNY     75  52  44 NE5       30.17S
MINOT          SUNNY     76  50  40 NW7       30.12F
MINOT AFB      SUNNY     78  51  38 NW8       30.12F
$$

NDZ018>021-031>035-040>046-311700-
SOUTHWEST NORTH DAKOTA

CITY           SKY/WX    TMP DP  RH WIND       PRES   REMARKS
BISMARCK       SUNNY     78  53  41 S8        30.14F
DICKINSON      SUNNY     82  46  28 W12       30.17F
GARRISON         N/A     76  57  51 W8        30.13F
HETTINGER ARPT SUNNY     80  50  34 W7        30.21F
$$

NDZ004>008-012>016-024-026-027-054-311700-
NORTHEAST NORTH DAKOTA

CITY           SKY/WX    TMP DP  RH WIND       PRES   REMARKS
GRAND FORKS    MOSUNNY   76  52  43 NW17G24   30.05F
GRND FRKS AFB  SUNNY     75  54  47 NW17      30.07F
DEVILS LAKE    SUNNY     72  52  49 NW10      30.10F
$$

NDZ022-023-025-028>030-036>039-047>053-311700-
SOUTHEAST NORTH DAKOTA

CITY           SKY/WX    TMP DP  RH WIND       PRES   REMARKS
FARGO          SUNNY     77  55  46 W13       30.09F
JAMESTOWN        N/A     76  53  44 NW6       30.12F
$$




USA.gov is the U.S. government's official web portal to all federal, state and local government web resources and services.